Weather in Sharchino

Russia / Novosibirsk Oblast     54°16′07″N   82°32′25″E
temp.,
°C
wind,
m/s
gust,
m/s
humid.,
%
clouds,
%
prec.,
mm/h
press.,
hPa
HPBL,
m
3 march, wed
wed301:00−18sw1199100 0.1 101720
04:00−18w119899 0.1 101720
07:00−18ssw229793 0.1 101820
10:00−15sw229693 0.1 1019114
13:00−12sw349196 0.1 1019335
16:00−10sw4692100 0.1 1020439
19:00−13ssw4995100 0.1 1021192
22:00−13ssw6139492 0.0 1023410
4 march, thu
thu401:00−14ssw6149595 0.1 1023371
04:00−14s71394100 0.0 1022415
07:00−12s81591100 0.1 1022503
10:00−10ssw81690100 0.0 1021541
13:00−8ssw91591100 0.1 1020572
16:00−6ssw91490100 0.1 1019653
19:00−5ssw81587100 0.1 1018640
22:00−7ssw81690100 0.0 1017512
5 march, fri
fri501:00−7s81690100 0.0 1015485
04:00−8ssw81787100 0.0 1014488
07:00−8ssw81683100 0.0 1013498
10:00−6ssw91791100 0.1 1012702
13:00−3sw101690100 0.4 10131139
16:00−3sw9138086 0.2 10161106
19:00−6sw8168693 0.2 1019642
22:00−6sw101693100 0.6 10191003
6 march, sat
sat601:00−6sw81493100 1.4 1020883
04:00−7sw81593100 0.4 1020678
07:00−7ssw81594100 1.0 1019651
10:00−6ssw101790100 0.7 1019709
13:00−5ssw111884100 0.7 1017741
16:00−4ssw101881100 0.0 1014837
19:00−5sw10198397 0.0 1013817
22:00−5sw101886100 0.0 1013808
7 march, sun
sun701:00−5sw91689100 0.1 1014795
04:00−5sw71493100 0.1 1015604
07:00−6sw61194100 0.2 1017399
10:00−7ssw5996100 0.0 1018318
13:00−5ssw6994100 0.1 1018413
16:00−3ssw61192100 0.1 1016569
19:00−3ssw71391100 0.1 1015625
22:00−4ssw71588100 0.0 1014502